Location: Sungai Kamana Besar
(2.6333°N, 113.4333°E)
Time: 06:32:06
(UTC+00:00)

Cosmos 192 - Pass Details

Date: 29 May 2022
Orbit: 701 x 712 km, 74.0° (Epoch: 26 June)

Event Time Altitude Azimuth Distance (km) Brightness Sun altitude
Exits shadow 20:37:50 66° 252° (WSW) 770 4.2 -23.4°
Maximum altitude 20:38:11 69° 282° (WNW) 756 4.2 -23.3°
Drops below altitude 10° 20:43:03 10° 6° (N) 2,167 7.2 -22.2°
Sets 20:45:22 0° 8° (N) 3,081 8.1 -21.7°
